Location: Bothwell
(42.3833°S, 147.0000°E)
Time: 20:34:47
(UTC+11:00)

AO-85 - Pass Details

Date: 01 October 2022
Orbit: 513 x 757 km, 64.8° (Epoch: 24 November)

Event Time Altitude Azimuth Distance (km) Brightness Sun altitude
Rises 19:56:53 0° 343° (NNW) 2,687 ? -18.5°
Reaches altitude 10° 19:59:03 10° 349° (NNW) 1,830 ? -18.8°
Enters shadow 20:02:11 41° 27° (NNE) 836 ? -19.4°
Exits shadow 20:09:28 - 141° (SE) 2,844 ? -20.6°
Sets 20:09:43 0° 141° (SE) 2,941 ? -20.6°
